Other Public Products
Issued by NWS Grand Forks, ND

Home | Current Version | Previous Version | Text Only | Print | Product List | Glossary Off
Versions: 1 2 3 4 5 6 7 8 9 10 11 12 13 14 15 16 17 18 19 20 21 22 23 24 25 26 27 28 29 30 31 32 33 34 35 36 37 38 39 40 41 42 43 44 45 46 47 48 49 50

250
FPUS83 KFGF 261710
OPUFGF
PRAIRIE TO PINES WEATHER ROUNDUP
NATIONAL WEATHER SERVICE EASTERN NORTH DAKOTA/GRAND FORKS ND
1200 PM CDT FRI MAY 26 2017

 **SATELLITE DATA USED TO AUGMENT SKY COVER AT AUTOMATED STATIONS**
 *****  WEATHER ACROSS EASTERN NORTH DAKOTA  *****

CITY           SKY/WX    TMP DP  RH WIND       PRES   REMARKS
GRAND FORKS    FAIR      67  49  52 W18G25    29.65R
GRAND FORKS AF FAIR      66  48  50 W18       29.66S
GRAND CITY NWS NOT AVBL
BUXTON         NOT AVBL
DEVILS LAKE    CLOUDY    57  44  62 W21       29.68R
FARGO          FAIR      69  47  45 W16G23    29.69R
WAHPETON ARPT  FAIR      68  45  42 W18       29.72S
$$

 *****  WEATHER ACROSS CENTRAL AND WESTERN NORTH DAKOTA  *****

CITY           SKY/WX    TMP DP  RH WIND       PRES   REMARKS
JAMESTOWN      CLOUDY    60  42  51 W18       29.73R
BISMARCK       CLOUDY    59  40  49 NW16G23   29.78S
MINOT          CLOUDY    54  45  71 W16       29.71R
MINOT AFB      CLOUDY    56  45  65 W22       29.70R
GARRISON         N/A     58  43  57 W18G28    29.73S
WILLISTON      CLOUDY    59  41  51 W14G21    29.77F
DICKINSON      PTSUNNY   59  37  44 NW23G36   29.78F
HETTINGER      FAIR      62  37  39 NW26G40   29.83S
$$

 *****  OTHER OBSERVATIONS NORTHEAST NORTH DAKOTA  *****

CITY           SKY/WX    TMP DP  RH WIND       PRES   REMARKS
WALHALLA       NOT AVBL
LANGDON        PTSUNNY   61  46  59 W20G30    29.64S
CAVALIER       FAIR      64  46  52 W18       29.61S
GRAFTON        FAIR      66  48  52 W17G24    29.65S
CANDO          NOT AVBL
FORT TOTTEN      N/A     58  43  58 W9        29.95S
ROLLA          CLOUDY    55  48  76 W18G26    29.65S
RUGBY          NOT AVBL
 ***** THE ABOVE OBSERVATIONS ARE NON NWS ARE NOT QUALITY
        CONTROLLED AND MAY MIS-REPORT RAIN FOR SNOW...
$$

 *****  OTHER OBSERVATIONS SOUTHEAST NORTH DAKOTA *****

CITY           SKY/WX    TMP DP  RH WIND       PRES   REMARKS
COOPERSTOWN    CLOUDY    61  43  51 W18G26    29.71R
VALLEY CITY    PTSUNNY   61  45  55 W17G23    29.73S
OAKES          NOT AVBL
GWINNER        MOSUNNY   64  45  48 MISG      29.74S
SHEYENNE NWR     N/A     68  48  48 W13       29.95S
BUFFALO        NOT AVBL
WYNDMERE         N/A     70  45  40 W16         N/A
 ***** THE ABOVE OBSERVATIONS ARE NON NWS ARE NOT QUALITY
       CONTROLLED AND MAY MIS-REPORT RAIN FOR SNOW...
$$

  *****  WEATHER ACROSS NORTHERN MINNESOTA  *****

CITY           SKY/WX    TMP DP  RH WIND       PRES   REMARKS
FLAG ISLAND    FAIR      57  52  82 S10       29.61S
WARROAD        FAIR      66  48  52 SW6       29.62S
ROSEAU         FAIR      70  48  46 W10G20    29.62S
HALLOCK        FAIR      68  46  45 W13G22    29.61S
THF RVR FALLS  FAIR      67  44  43 W16G23    29.66R
HALSTAD          N/A     67  48  51 W15         N/A
FOSSTON        FAIR      68  46  45 W15G25    29.68R
BAUDETTE       PTSUNNY   70  52  52 VRB6      29.61F
WASKISH        PTSUNNY   66  54  63 W7        29.65S
CROOKSTON      FAIR      68  46  45 W13G18    29.66R
$$
  *****  WEATHER ACROSS CENTRAL AND WEST MINNESOTA  *****

CITY           SKY/WX    TMP DP  RH WIND       PRES   REMARKS
BEMIDJI        FAIR      71  47  42 W15       29.66S
PARK RAPIDS    FAIR      72  47  40 W10G17    29.68S
WADENA         FAIR      70  46  43 W15       29.70R
DETROIT LAKES  FAIR      66  46  48 W10G16    29.71S
MOORHEAD       FAIR      70  45  40 W15       29.70S
FERGUS FALLS   FAIR      66  48  52 NW16G22   29.70S
ELBOW LAKE     FAIR      67  49  54 NW15G22   29.74R
MORRIS MN      FAIR      70  50  49 W15G23    29.73S
STAPLES        FAIR      70  48  46 W9        29.70S
WHEATON        FAIR      70  45  40 W14       29.75S
$$
  *****  WEATHER ELSEWHERE ACROSS MINNESOTA  *****

CITY           SKY/WX    TMP DP  RH WIND       PRES   REMARKS
DULUTH         FAIR      60  52  74 SE9       29.73S
INTRNTL FALLS  CLOUDY    70  54  56 VRB6      29.64S
ELY            FAIR      64  52  63 S12G17    29.69F
CLOQUET        FAIR      63  52  67 SE7       29.72S
BRAINERD       FAIR      72  57  59 SW10      29.69S
HIBBING        FAIR      66  54  65 SE10G16   29.68F
ALEXANDRIA     FAIR      68  48  48 W16       29.74R
SAINT CLOUD    FAIR      71  59  65 SE13      29.70S
MINNEAPOLIS    PTSUNNY   70  55  59 S12       29.74S
$$

  *****  WEATHER ACROSS SOUTH DAKOTA  *****

CITY           SKY/WX    TMP DP  RH WIND       PRES   REMARKS
SIOUX FALLS    FAIR      70  50  49 NW15      29.80R
BROOKINGS      FAIR      65  49  56 W20       29.79S
WATERTOWN      FAIR      64  46  52 W17       29.78R
HURON          FAIR      67  43  41 W14G22    29.81S
SISSETON         N/A     69  46  43 NW21G26   29.73S
ABERDEEN       FAIR      65  39  38 W16G23    29.78S
MITCHELL       FAIR      68  43  40 W13G20    29.83S
PIERRE         FAIR      67  39  35 NW20G28   29.84S
MOBRIDGE       FAIR      62  40  44 NW15G26   29.80R
RAPID CITY     FAIR      65  34  31 N13G24    29.90F
$$

  *****  SOME WEATHER IN NEARBY STATES *****

CITY           SKY/WX    TMP DP  RH WIND       PRES   REMARKS
GLASGOW MT     FAIR      64  36  35 W17G28    29.82F
GREAT FALLS MT FAIR      57  37  47 VRB5      29.95F
CHEYENNE WY    CLOUDY    50  38  63 S9G18     29.98S
SCOTTSBLUFF NE FAIR      60  39  45 SW5       29.95F
OMAHA NE       FAIR      74  57  55 NW15      29.78R
DES MOINES IA  PTSUNNY   71  61  70 NW3       29.76R
DAVENPORT IA   HVY RAIN  64  57  78 CALM      29.78R
CHICAGO IL     CLOUDY    68  54  60 E14       29.81F
EAU CLAIRE WI  FAIR      72  53  51 S9        29.75F
LA CROSSE WI   PTSUNNY   72  56  57 S13       29.78S
$$

  *****  SOME NATIONAL WEATHER *****

CITY           SKY/WX    TMP DP  RH WIND       PRES   REMARKS
LA GUARDIA NY  PTSUNNY   74  54  49 W18G24    29.57F
RALEIGH NC     FAIR      77  55  46 W9G23     29.92F
ATLANTA GA     FAIR      78  57  48 W14       30.06S
NEW ORLEANS LA FAIR      83  67  58 SE14      30.03S
OKLAHOMA CITY  FAIR      83  65  54 N13G21    29.75R
ALBUQUERQUE NM FAIR      73  15  11 VRB6      30.04F
SALT LAKE CITY PTSUNNY   58  38  47 W6        29.84R
LOS ANGELES CA CLOUDY    63  53  70 SW9       29.99R
BOISE ID       PTSUNNY   58  43  57 NW7       29.89R
SEATTLE WA     FAIR      64  51  62 CALM      29.97S
$$

*** WEATHER ACROSS MANITOBA...SASKATCHEWAN AND ONTARIO ***
                ***ONTARIO***

CITY           SKY/WX    TMP DP  RH WIND       PRES   REMARKS
GERALDTON      PTSUNNY   70  50  49 S7G17     29.79F
THUNDER BAY    CLOUDY    55  46  71 E8        29.80R
SIOUX LOOKOUT  PTSUNNY   57  54  88 SE8       29.66F
TORONTO        PTSUNNY   64  54  68 NW3       29.72R
BIG TROUT LK   SUNNY     64  43  45 S8        29.65S
PICKLE LAKE    CLOUDY    61  48  63 SE9       29.70F
DRYDEN         CLOUDY    63  54  72 S15       29.64S
KENORA         MOSUNNY   64  48  55 S10       29.62S
$$
                *** MANITOBA***

CITY           SKY/WX    TMP DP  RH WIND       PRES   REMARKS
BRANDON        LGT RAIN  55  52  88 W9        29.59R
DAUPHIN        CLOUDY    61  48  63 W20G29    29.50R
ISLAND LAKE    NOT AVBL
PILOT MOUND      N/A     59  45  58 W14G24      N/A
THE PAS        LGT RAIN  52  50  93 W5        29.37S FOG
THOMPSON       LGT RAIN  61  48  63 E7        29.44F
WINNIPEG       PTSUNNY   66  48  52 SW12G22   29.57S
LYNN LAKE      LGT RAIN  54  50  87 NE8       29.51F
CHURCHILL      CLOUDY    39  34  81 NE13      29.68S
GILLAM         CLOUDY    63  41  45 SE3       29.55S
$$
                ***SASKATCHEWAN***

CITY           SKY/WX    TMP DP  RH WIND       PRES   REMARKS
ESTEVAN        PTSUNNY   55  43  62 W24G32    29.70S
KINDERSLEY     MOSUNNY   61  43  51 NW15G24   29.75F
LLOYDMINSTER   MOSUNNY   59  41  51 NW12      29.73S
PRINCE ALBERT  PTSUNNY   55  43  62 N22G28    29.59S
REGINA         PTSUNNY   57  39  51 NW33G43   29.68R
YORKTON          N/A     54  46  76 W21       29.56R



USA.gov is the U.S. government's official web portal to all federal, state and local government web resources and services.